Location: Recife
(8.0585°S, 34.8848°W)
Time: 14:46:28
(UTC-03:00)

Tiros 1 despin weight - Pass Details

Date: 17 April 2026
Orbit: 555 x 591 km, 48.2° (Epoch: 14 May)

Event Time Altitude Azimuth Distance (km) Brightness Sun altitude
Rises 23:35:52 0° 342° (NNW) 2,800 - -85.0°
Reaches altitude 10° 23:38:25 10° 355° (N) 1,905 - -84.5°
Maximum altitude 23:42:04 26° 52° (NE) 1,174 - -83.7°
Drops below altitude 10° 23:45:44 10° 108° (ESE) 1,910 - -82.9°
Sets 23:48:17 0° 121° (ESE) 2,810 - -82.3°
